EW1039 Mjondalen NO current weather conditions

sailwx.info

Wind from 234 at 2 knots gusting 5

Air temperature 17.8° C
Dewpoint 13.1° C

Last reported at 2020-Aug-10 08:01 UTC.
Time now 2020-Aug-10 08:17 UTC

Location: N 59°45' E 010°01'.
View on Google Maps.

See reports from other nearby stations

  
Tides and Currents Weather Stations Pressure Air Temp Water Temp Dewpoint Dewpoint Depression Visibility Wind Speed Wind Dir Waves Ship Positions
date/time (UTC)wind fromknots sea level pressurealtimeterstation pressurevisibilityair tempwater tempwave heightnotes
2020-Aug-10 08:01 234 2 gusting 5 17.8
2020-Aug-10 07:46 251 1 gusting 4 17.2
2020-Aug-10 07:32 283 17.2
2020-Aug-10 07:16 301 17.2
2020-Aug-10 07:01 269 17.2
2020-Aug-10 06:46 280 16.7
2020-Aug-10 06:31 240 16.7
2020-Aug-10 06:16 215 16.7
2020-Aug-10 06:01 238 16.1
2020-Aug-10 05:46 237 16.1
2020-Aug-10 05:30 237 16.1
2020-Aug-10 05:16 286 16.1
2020-Aug-10 05:01 286 15.6
2020-Aug-10 04:45 286 15.6
2020-Aug-10 04:30 282 15.6
2020-Aug-10 04:15 282 15.6
2020-Aug-10 04:00 231 15.6
2020-Aug-10 03:45 231 15.6
2020-Aug-10 03:30 231 15.6
2020-Aug-10 03:15 231 15.6
2020-Aug-10 03:00 231 15.6
2020-Aug-10 02:45 231 15.6
2020-Aug-10 02:31 231 15.6
2020-Aug-10 02:15 231 15.6
2020-Aug-10 02:00 231 15.6
2020-Aug-10 01:45 231 15.6
2020-Aug-10 01:30 231 15.6
2020-Aug-10 01:15 227 15.6
2020-Aug-10 01:00 227 15.6
2020-Aug-10 00:45 227 15.6
2020-Aug-10 00:30 227 15.6
2020-Aug-10 00:15 227 15.6
2020-Aug-10 00:00 219 15.0
2020-Aug-09 23:45 215 15.0
2020-Aug-09 23:30 215 15.0
2020-Aug-09 23:15 215 15.0
2020-Aug-09 23:00 215 15.0
2020-Aug-09 22:45 215 15.0
2020-Aug-09 22:31 215 15.6
2020-Aug-09 22:18 215 15.6
2020-Aug-09 22:02 215 15.6
2020-Aug-09 21:46 219 15.6
2020-Aug-09 21:32 219 16.1
2020-Aug-09 21:16 217 16.1
2020-Aug-09 21:01 190 16.7
2020-Aug-09 20:46 190 17.2
2020-Aug-09 20:32 190 17.8
2020-Aug-09 20:16 190 17.8
2020-Aug-09 20:02 190 18.3
2020-Aug-09 19:47 188 19.4
2020-Aug-09 19:33 183 20.0
2020-Aug-09 19:16 067 20.0
2020-Aug-09 19:01 067 21.1
2020-Aug-09 18:48 067 21.7
2020-Aug-09 18:32 055 22.2
2020-Aug-09 18:16 031 22.8
2020-Aug-09 18:02 051 22.2
2020-Aug-09 17:46 057 22.2
2020-Aug-09 17:31 092 22.8
2020-Aug-09 17:01 078 23.9
2020-Aug-09 16:46 101 1 gusting 7 23.9
2020-Aug-09 16:31 039 0 gusting 5 23.9
2020-Aug-09 16:15 112 23.9
2020-Aug-09 16:01 067 24.4
2020-Aug-09 15:46 125 25.0
2020-Aug-09 15:31 076 25.0
2020-Aug-09 15:16 109 0 gusting 7 25.6
2020-Aug-09 15:01 121 2 gusting 6 25.0
2020-Aug-09 14:46 142 2 gusting 9 25.6
2020-Aug-09 14:32 115 3 gusting 9 25.0
2020-Aug-09 14:16 119 3 gusting 9 24.4
2020-Aug-09 14:01 150 2 gusting 7 25.0
2020-Aug-09 13:46 117 1 gusting 7 25.0
2020-Aug-09 13:30 106 3 gusting 10 25.0
2020-Aug-09 13:15 109 2 gusting 7 23.9
2020-Aug-09 13:02 097 0 gusting 9 25.0
2020-Aug-09 12:45 111 1 gusting 8 23.9
2020-Aug-09 12:30 100 1 gusting 8 23.9
2020-Aug-09 12:16 135 1 gusting 8 23.9
2020-Aug-09 12:00 190 0 gusting 5 22.8
2020-Aug-09 11:45 117 22.8
2020-Aug-09 11:30 278 22.8
2020-Aug-09 11:15 282 22.2
2020-Aug-09 11:00 221 0 gusting 5 22.2
2020-Aug-09 10:45 138 21.7
2020-Aug-09 10:30 215 21.7
2020-Aug-09 10:15 170 0 gusting 6 21.7
2020-Aug-09 10:00 205 21.1
2020-Aug-09 09:45 275 0 gusting 5 20.6
2020-Aug-09 09:30 228 0 gusting 5 20.6
2020-Aug-09 09:15 305 20.0
2020-Aug-09 09:03 261 19.4
2020-Aug-09 08:46 273 19.4
2020-Aug-09 08:31 319 18.9
2020-Aug-09 08:16 256 1 gusting 5 18.3
2020-Aug-09 08:01 274 17.8
2020-Aug-09 07:46 229 0 gusting 3 17.8
2020-Aug-09 07:31 265 17.2
2020-Aug-09 07:17 226 17.2
2020-Aug-09 07:02 222 16.7
2020-Aug-09 06:46 017 16.1
2020-Aug-09 06:31 018 15.6
2020-Aug-09 06:16 022 15.0
2020-Aug-09 06:01 317 14.4
2020-Aug-09 05:45 307 14.4
2020-Aug-09 05:30 296 13.9
2020-Aug-09 05:15 296 13.9
2020-Aug-09 05:01 293 13.3
2020-Aug-09 04:45 311 13.3
2020-Aug-09 04:30 354 13.9
2020-Aug-09 04:15 014 13.3
2020-Aug-09 04:01 019 13.3
2020-Aug-09 03:46 013 13.9
2020-Aug-09 03:30 296 13.9
2020-Aug-09 03:15 346 14.4
2020-Aug-09 03:00 307 14.4
2020-Aug-09 02:45 301 14.4
2020-Aug-09 02:30 002 14.4
2020-Aug-09 02:15 028 15.6
2020-Aug-09 02:02 352 15.6
2020-Aug-09 01:46 317 15.6
2020-Aug-09 01:31 309 15.6
2020-Aug-09 01:18 251 16.7
2020-Aug-09 01:02 309 16.1
2020-Aug-09 00:46 299 16.1
2020-Aug-09 00:31 320 16.1
2020-Aug-09 00:16 320 16.1
2020-Aug-09 00:01 312 17.8
2020-Aug-08 23:45 229 2 gusting 7 17.8
2020-Aug-08 23:32 270 17.2
2020-Aug-08 23:16 346 18.3
2020-Aug-08 23:02 229 2 gusting 8 17.2
2020-Aug-08 22:45 352 16.7
2020-Aug-08 22:30 342 16.7
2020-Aug-08 22:16 261 17.2
2020-Aug-08 22:01 175 17.2
2020-Aug-08 21:45 175 17.2
2020-Aug-08 21:31 175 17.8
2020-Aug-08 21:15 175 18.3
2020-Aug-08 21:01 098 18.3
2020-Aug-08 20:45 085 18.9
2020-Aug-08 20:30 080 1 gusting 6 19.4
2020-Aug-08 20:16 061 19.4
2020-Aug-08 20:00 044 1 gusting 7 19.4
2020-Aug-08 19:45 067 1 gusting 6 20.0
2020-Aug-08 19:30 057 0 gusting 6 20.0
2020-Aug-08 19:16 092 0 gusting 7 20.6
2020-Aug-08 19:00 049 0 gusting 6 21.1
2020-Aug-08 18:45 090 2 gusting 6 21.7
2020-Aug-08 18:30 078 1 gusting 6 21.7
2020-Aug-08 18:15 102 3 gusting 10 21.7
2020-Aug-08 18:00 117 2 gusting 7 22.2
2020-Aug-08 17:45 110 0 gusting 8 22.2
2020-Aug-08 17:30 079 3 gusting 7 22.2
2020-Aug-08 17:15 084 1 gusting 6 22.8
2020-Aug-08 17:00 063 0 gusting 7 23.3
2020-Aug-08 16:45 065 3 gusting 10 23.9
2020-Aug-08 16:30 067 1 gusting 10 24.4
2020-Aug-08 16:15 113 2 gusting 10 24.4
2020-Aug-08 16:00 082 2 gusting 10 24.4
2020-Aug-08 15:45 075 0 gusting 9 24.4
2020-Aug-08 15:30 062 5 gusting 10 25.6
2020-Aug-08 15:15 034 0 gusting 8 25.6
2020-Aug-08 15:00 080 2 gusting 9 26.7
2020-Aug-08 14:45 046 1 gusting 9 27.8
2020-Aug-08 14:30 049 2 gusting 7 26.7
2020-Aug-08 14:15 044 4 gusting 11 26.7
2020-Aug-08 14:02 049 5 gusting 13 25.6
2020-Aug-08 13:47 086 3 gusting 12 25.6
2020-Aug-08 13:31 083 4 gusting 12 25.0
2020-Aug-08 13:16 071 2 gusting 10 26.1
2020-Aug-08 13:01 040 6 gusting 13 25.6
2020-Aug-08 12:47 054 2 gusting 10 25.0
2020-Aug-08 12:32 088 6 gusting 13 25.0
2020-Aug-08 12:16 090 6 gusting 14 25.0
2020-Aug-08 12:02 051 5 gusting 13 25.0
2020-Aug-08 11:47 030 4 gusting 10 24.4
2020-Aug-08 11:30 079 3 gusting 12 24.4
2020-Aug-08 11:16 097 4 gusting 11 23.9
2020-Aug-08 11:00 070 4 gusting 11 22.8
2020-Aug-08 10:45 055 2 gusting 9 21.7
2020-Aug-08 10:30 067 1 gusting 8 21.7
2020-Aug-08 10:15 065 2 gusting 8 21.7
2020-Aug-08 10:01 086 2 gusting 10 21.7
2020-Aug-08 09:45 080 3 gusting 8 21.7
2020-Aug-08 09:30 101 3 gusting 9 21.7
2020-Aug-08 09:15 067 1 gusting 10 21.1
2020-Aug-08 09:00 107 3 gusting 8 20.6
2020-Aug-08 08:45 044 0 gusting 10 20.6
2020-Aug-08 08:30 072 3 gusting 9 20.6
2020-Aug-08 08:15 073 3 gusting 11 20.6
2020-Aug-08 08:00 042 1 gusting 8 20.0